This is the latest recevied weather packets stored in our database for station/object DL1BWU. If no packets are shown the sender has not sent any weather packets the latest 10 day(s).
| Time | Temp. | Humidity | Pressure | Rain* | Wind** | Luminosity | Snow |
|---|---|---|---|---|---|---|---|
| 1777788915 | 15° C | 57% | 1013.5 hPa | 0 mm | - | - | - |
| 1777788315 | 14.44° C | 58% | 1013.5 hPa | 0 mm | - | - | - |
| 1777787715 | 13.89° C | 59% | 1013.6 hPa | 0 mm | - | - | - |
| 1777787115 | 13.33° C | 60% | 1013.4 hPa | 0 mm | - | - | - |
| 1777786515 | 12.78° C | 61% | 1013.7 hPa | 0 mm | - | - | - |
| 1777785915 | 11.67° C | 62% | 1013.7 hPa | 0 mm | - | - | - |
| 1777785315 | 11.11° C | 62% | 1013.6 hPa | 0 mm | - | - | - |
| 1777784715 | 11.11° C | 62% | 1013.6 hPa | 0 mm | - | - | - |
| 1777784115 | 10.56° C | 62% | 1013.4 hPa | 0 mm | - | - | - |
| 1777783515 | 10.56° C | 62% | 1013.5 hPa | 0 mm | - | - | - |
| 1777782915 | 10.56° C | 62% | 1013.5 hPa | 0 mm | - | - | - |
| 1777782315 | 10.56° C | 62% | 1013.8 hPa | 0 mm | - | - | - |
| 1777781715 | 10.56° C | 62% | 1013.7 hPa | 0 mm | - | - | - |
| 1777781115 | 10.56° C | 62% | 1013.7 hPa | 0 mm | - | - | - |
| 1777780515 | 10.56° C | 62% | 1013.6 hPa | 0 mm | - | - | - |
| 1777779915 | 10.56° C | 62% | 1013.7 hPa | 0 mm | - | - | - |
| 1777779315 | 10.56° C | 62% | 1013.8 hPa | 0 mm | - | - | - |
| 1777778715 | 10.56° C | 62% | 1013.7 hPa | 0 mm | - | - | - |
| 1777778115 | 10.56° C | 62% | 1013.8 hPa | 0 mm | - | - | - |
| 1777777515 | 10.56° C | 61% | 1013.6 hPa | 0 mm | - | - | - |
| 1777776915 | 11.11° C | 61% | 1013.8 hPa | 0 mm | - | - | - |
| 1777776315 | 11.11° C | 61% | 1013.9 hPa | 0 mm | - | - | - |
| 1777775715 | 11.11° C | 61% | 1013.8 hPa | 0 mm | - | - | - |
| 1777775115 | 11.11° C | 61% | 1013.9 hPa | 0 mm | - | - | - |
| 1777774515 | 11.11° C | 61% | 1014 hPa | 0 mm | - | - | - |
* Rain latest hour (hover to see other rain measurements)
** Current wind speed in m/s (hover to see current wind gust speed)